Wind_Speed
36 40 40 38 35 37 41 40 37 35 40 41 44 44 44 40 34 31 29 28 25 24 20 19 19 15 16 15 15 14 14 9 4 3 8 15 18 22 26 27 24 26 24
35 38 40 34 37 37 35 37 38 38 38 42 44 45 45 42 38 33 29 28 25 24 22 21 21 18 18 16 14 15 16 14 6 4 7 15 18 22 26 27 28 27 25
35 37 36 37 37 36 36 37 41 39 42 41 46 45 43 41 39 33 31 28 26 23 21 22 20 17 17 15 14 14 14 12 12 10 11 16 20 25 30 31 32 33 28
29 32 35 37 39 36 35 40 42 43 45 43 37 46 41 39 38 36 33 30 28 25 23 22 19 19 18 16 16 14 11 11 13 15 14 14 19 27 24 25 29 36 33
25 29 32 36 38 35 36 37 36 45 44 45 37 45 43 41 40 38 35 32 29 28 25 23 20 19 19 17 17 14 14 14 14 17 15 15 19 22 24 28 23 26 29
26 28 34 35 33 34 35 35 38 35 40 45 45 46 42 38 39 37 35 34 31 29 27 23 22 21 22 22 22 20 17 16 17 19 17 14 19 24 26 28 26 24 7
28 27 31 32 33 36 41 39 47 43 37 44 34 40 43 46 40 37 34 33 32 30 30 29 26 23 22 22 21 20 19 18 18 19 16 16 16 23 25 27 28 24 20
28 28 31 39 41 42 49 45 43 49 46 42 43 44 44 42 39 35 35 36 36 33 30 28 26 24 21 17 17 19 19 18 19 18 14 16 18 20 22 25 26 26 25
30 35 41 47 46 47 46 46 49 47 44 50 45 44 45 38 38 39 40 40 37 34 30 27 26 24 20 17 19 20 21 22 19 17 14 15 16 20 23 27 28 23 19
33 40 46 51 49 48 50 49 49 57 50 48 43 45 42 41 37 40 40 42 37 33 27 26 24 24 21 20 23 22 26 22 22 22 21 21 22 25 25 26 30 24 20
38 46 42 40 40 49 48 48 53 54 53 42 48 41 39 38 38 37 37 37 35 32 30 28 25 23 22 22 24 25 22 19 23 24 25 26 27 28 29 27 28 29 24
43 48 47 41 36 46 46 47 50 59 47 43 42 38 37 34 34 34 32 31 30 32 33 29 25 23 23 23 24 24 22 25 25 28 30 29 28 29 31 30 29 27 21
42 43 47 49 46 45 47 40 42 48 44 38 37 33 31 35 35 32 28 28 30 34 31 27 24 24 23 24 25 24 24 28 27 28 27 25 24 26 30 32 29 29 26
45 38 43 48 43 42 39 38 37 42 39 35 34 30 33 37 33 29 30 33 33 33 28 24 24 27 24 25 27 25 26 25 25 24 25 26 28 31 30 30 27 28 24
42 38 42 40 41 38 33 30 34 32 37 38 33 35 36 34 34 36 36 34 33 31 29 25 27 23 29 27 25 25 23 23 24 23 27 30 31 32 28 27 26 26 24
37 34 36 38 38 38 42 41 35 38 39 39 42 42 36 38 38 35 32 30 29 25 28 29 23 28 27 23 23 23 20 20 23 25 27 29 29 29 25 26 27 26 26
38 33 36 37 37 38 38 38 37 41 41 40 40 40 41 39 35 33 32 29 24 25 32 25 27 25 23 21 18 18 18 20 23 24 26 27 27 28 25 26 28 26 29
36 34 34 35 36 37 37 36 36 36 34 35 37 39 38 36 34 31 31 29 30 29 26 27 23 20 20 15 15 18 19 21 23 24 23 25 27 29 27 27 28 27 28
34 35 38 39 38 38 37 35 34 33 34 37 41 39 35 33 32 29 25 30 30 28 25 22 19 18 14 14 16 20 20 20 20 22 22 26 27 30 29 29 28 28 28
36 39 39 38 36 37 35 34 33 30 31 31 35 36 34 33 32 30 27 27 27 24 20 20 18 16 15 17 18 19 19 18 18 21 22 26 26 28 31 32 32 28 28
34 39 37 34 33 33 32 31 29 30 31 32 35 33 30 32 32 29 25 23 22 20 19 18 17 17 17 18 18 18 17 16 17 21 23 26 26 28 30 30 32 29 28
31 31 30 31 32 32 32 32 32 33 35 36 34 32 29 30 29 26 23 20 18 17 16 16 17 18 19 17 17 16 16 16 19 22 23 25 25 26 28 30 31 31 29
29 30 30 29 33 36 37 36 37 36 36 34 32 30 27 27 26 24 22 20 18 17 16 13 15 16 16 16 15 15 16 18 20 21 22 23 24 25 26 28 30 32 30
28 29 29 29 31 36 36 36 36 34 34 33 31 29 26 25 25 23 20 18 16 15 13 12 12 14 15 14 12 14 16 17 18 19 20 21 22 22 23 25 28 30 31
32 33 31 32 33 34 35 34 34 34 32 30 29 28 26 24 22 20 17 14 13 12 11 9 10 11 11 12 13 15 16 18 19 19 19 20 20 20 21 22 25 28 30
35 35 34 34 35 36 38 35 33 31 30 28 26 25 23 20 18 17 15 13 12 11 9 6 5 7 10 12 14 15 16 18 20 20 20 20 20 19 20 20 23 26 27
Wind_Direction
211 206 206 205 194 191 191 186 180 175 171 171 168 163 160 155 155 150 144 141 138 133 130 127 117 118 107 98 90 83 75 83 96 18 9 7 6 1 357 360 1 360 359
215 202 201 197 187 188 184 178 176 165 165 160 159 157 153 155 151 146 144 135 138 133 131 125 117 117 106 96 89 82 69 66 64 6 341 1 6 358 354 355 358 1 0
211 197 196 195 190 183 179 172 169 161 155 156 155 149 149 147 145 145 144 137 136 131 130 122 120 114 101 94 93 87 75 61 41 30 13 3 360 358 356 357 357 359 1
212 195 189 196 198 183 175 169 163 157 151 155 145 140 141 144 143 144 136 136 128 127 122 118 111 100 93 95 95 83 76 53 48 32 19 6 353 357 1 347 347 357 351
219 195 185 190 193 186 172 161 155 156 152 150 132 132 140 142 142 141 137 131 129 126 120 110 101 94 91 85 87 77 64 56 45 31 23 12 359 358 356 351 342 342 346
212 192 187 177 173 160 149 137 140 133 136 139 133 133 133 135 140 139 133 130 129 125 117 110 104 100 95 90 85 77 65 55 45 34 26 8 1 1 359 356 351 353 337
211 198 172 160 144 144 130 126 123 115 117 117 117 123 126 133 139 130 129 128 124 118 114 110 103 100 99 94 86 78 67 55 45 33 23 19 3 6 3 358 355 339 320
199 174 151 134 129 134 128 127 120 122 122 110 125 125 129 134 133 129 129 122 114 110 106 102 99 95 90 91 84 74 63 52 39 36 33 30 21 15 12 4 356 339 339
162 141 134 134 133 130 127 126 121 114 112 120 127 128 127 134 132 131 126 119 113 108 102 96 94 91 86 87 78 68 59 45 47 46 42 36 25 23 19 9 359 350 347
116 125 128 131 139 132 126 126 124 122 119 121 124 127 137 136 135 131 126 120 118 111 105 97 88 86 83 76 67 60 55 42 40 37 39 37 30 25 23 18 6 353 343
108 113 114 122 127 125 120 120 118 119 117 120 123 131 134 136 136 131 126 123 120 117 111 101 91 85 82 74 66 60 58 55 50 42 36 30 26 22 18 16 12 359 337
96 99 102 108 108 107 109 112 123 115 120 121 119 119 127 134 133 127 122 123 122 118 116 104 95 86 80 73 69 65 59 56 49 42 35 26 18 15 13 12 9 1 356
95 101 104 103 104 108 107 114 114 119 121 120 120 122 125 128 122 123 128 124 123 120 115 106 96 84 78 72 66 58 54 50 46 42 31 23 19 16 16 8 1 355 357
92 95 98 99 103 104 109 120 120 118 119 123 124 125 127 132 132 134 130 129 120 119 123 108 92 79 73 71 62 54 53 48 42 36 28 24 22 22 13 5 349 347 348
96 97 98 102 102 98 97 106 111 108 126 130 132 133 134 138 140 140 137 134 126 117 117 106 83 77 66 61 58 54 53 46 40 35 29 25 23 19 9 359 357 354 355
94 98 104 104 105 107 102 95 105 119 122 129 135 136 136 133 138 138 132 123 126 128 103 93 85 70 65 59 54 53 54 48 40 37 31 25 24 17 1 0 3 1 356
105 109 111 111 110 111 110 111 107 115 126 132 133 131 130 132 131 129 129 120 118 110 95 92 79 71 64 59 54 52 52 47 43 39 33 23 21 21 10 5 3 3 360
106 109 108 108 109 108 110 114 116 117 114 116 124 127 130 130 129 125 118 119 102 91 95 84 80 76 69 67 60 53 51 45 37 34 33 27 23 23 14 8 5 2 360
99 101 103 104 106 109 111 112 113 114 115 119 126 127 128 129 128 121 120 104 102 95 89 90 87 79 78 67 60 52 48 45 34 29 30 27 27 25 20 15 9 6 4
92 102 104 108 109 110 113 116 117 116 116 119 124 128 131 128 117 113 107 105 99 102 105 95 88 81 73 63 56 49 46 42 32 27 29 29 29 27 25 22 17 6 4
95 94 100 106 108 112 115 114 116 116 117 123 130 132 130 122 119 116 113 111 114 112 110 100 84 72 62 57 52 45 41 41 31 28 27 27 28 27 25 26 23 14 7
96 101 105 108 112 112 114 119 120 120 122 123 124 124 123 121 123 123 117 110 114 119 117 99 80 63 54 49 45 37 33 32 28 26 24 24 27 28 26 24 23 19 11
103 105 108 111 116 119 119 122 123 125 128 127 124 124 127 127 128 126 129 127 116 112 101 91 74 61 51 45 40 33 32 29 25 20 21 22 25 25 25 24 23 19 14
110 109 112 116 121 125 127 128 130 130 132 134 136 134 133 135 138 140 126 115 108 104 105 95 76 57 45 40 39 34 32 27 23 21 19 20 23 24 23 23 24 22 17
122 123 125 128 132 132 134 136 138 140 141 139 139 142 141 142 141 132 123 116 120 129 125 105 70 51 41 35 34 34 29 24 21 20 20 20 23 24 25 25 22 22 21
138 141 142 142 142 144 144 145 145 144 142 143 146 144 142 139 131 136 146 154 149 140 124 102 77 47 34 31 30 27 25 23 21 19 19 19 21 23 25 27 24 23 21
Height
646 648 653 661 665 674 681 688 699 705 708 716 723 727 732 741 755 764 772 773 779 784 789 790 791 794 794 794 794 796 795 796 799 800 797 793 787 783 781 777 771 763 757
635 639 646 652 658 668 675 682 693 699 708 713 721 729 732 742 749 762 773 772 784 787 791 792 793 796 797 796 798 799 798 800 802 800 796 792 787 784 781 776 769 761 756
625 627 633 644 653 661 670 677 687 697 704 715 718 725 736 743 750 760 772 776 785 791 794 793 795 798 797 797 799 800 800 803 802 800 795 792 787 782 776 774 768 758 755
615 618 623 636 645 657 666 673 683 693 701 712 710 719 735 746 750 762 768 783 788 794 795 797 798 798 798 799 800 800 802 802 801 799 794 790 789 784 777 773 765 757 752
612 613 615 628 638 652 665 672 682 691 701 709 718 715 739 749 755 765 775 782 791 794 798 798 800 798 798 800 799 803 802 803 801 797 793 791 788 783 777 773 766 758 754
607 608 613 623 635 651 665 672 683 694 703 711 717 725 741 754 761 773 776 784 792 795 797 800 801 801 801 801 802 802 804 802 801 795 794 792 792 787 779 775 766 758 755
598 602 605 618 633 652 662 677 683 697 710 716 727 732 747 751 773 775 784 790 792 796 798 801 804 805 805 803 804 804 806 804 801 795 800 795 794 788 783 777 770 768 763
587 596 604 618 634 653 660 677 689 699 715 705 728 743 760 766 771 781 790 792 794 799 803 806 807 809 808 806 806 806 806 806 800 796 803 796 796 791 785 780 774 770 759
579 588 604 620 638 641 660 673 685 699 715 725 745 754 759 778 778 786 791 793 798 803 806 811 811 809 809 810 809 807 808 805 803 802 802 797 797 792 786 779 775 768 759
578 592 604 617 637 653 658 668 686 694 722 734 748 755 775 783 787 790 792 791 803 804 812 815 814 812 813 813 808 811 804 807 804 803 801 798 795 791 787 784 780 770 767
592 598 616 637 650 653 665 671 680 704 718 746 751 771 783 786 789 794 798 801 805 809 814 817 818 817 814 813 810 810 810 810 805 806 802 798 795 793 789 785 780 774 772
603 611 625 644 658 656 673 682 699 694 734 749 757 772 784 793 795 797 804 812 813 811 815 818 820 818 818 816 812 810 818 806 808 808 804 803 801 796 792 786 780 777 773
622 634 644 651 663 672 677 699 709 719 736 748 759 775 788 795 797 805 816 816 816 816 818 822 823 818 822 819 815 816 815 811 813 810 809 808 804 799 794 787 782 778 770
632 648 654 659 677 689 702 718 726 722 740 756 766 779 788 796 803 813 818 821 819 818 822 826 824 818 826 819 815 822 818 820 820 819 816 812 806 798 794 789 785 777 769
651 665 671 683 693 705 719 729 733 738 748 760 774 782 790 800 808 814 819 822 819 820 826 828 821 829 818 820 825 823 825 826 826 822 817 812 807 802 798 793 787 778 772
668 682 691 699 709 721 727 740 749 756 763 776 783 789 799 806 815 821 823 819 823 829 825 823 834 823 825 831 831 829 832 832 827 823 820 818 811 807 802 795 788 782 774
686 697 705 711 722 732 741 752 761 776 784 794 797 802 808 814 819 822 825 823 830 829 823 835 828 832 833 837 841 839 837 833 828 825 823 824 818 811 803 796 790 784 776
701 710 715 724 733 742 752 763 773 780 789 798 806 811 818 821 824 826 822 834 831 828 836 830 837 840 839 847 846 840 838 836 835 832 829 825 820 813 805 800 793 787 780
712 718 724 734 743 751 762 771 780 788 794 802 811 818 822 826 828 826 834 831 834 835 838 844 846 845 851 849 845 839 839 839 841 839 834 828 820 814 809 804 797 791 785
728 733 738 747 757 765 775 783 791 796 800 807 814 821 827 828 827 832 835 836 836 845 853 851 852 854 854 847 843 843 842 843 845 843 836 829 822 817 812 807 801 795 790
742 745 751 759 766 774 782 789 797 801 807 815 820 823 826 826 830 836 840 843 849 853 855 858 859 857 853 848 847 847 846 846 846 842 837 830 824 819 814 810 805 800 795
752 757 765 771 777 784 791 800 805 809 812 815 822 827 830 832 837 844 848 851 856 859 860 860 860 857 855 855 852 853 850 849 845 839 836 832 827 822 817 812 809 804 799
763 768 776 783 788 794 799 805 810 815 820 823 825 830 839 841 845 849 857 860 859 861 860 862 860 861 860 857 856 856 852 848 843 840 837 833 828 824 820 817 812 808 805
771 777 784 791 796 801 807 811 814 819 825 829 836 840 844 849 854 859 859 859 861 861 863 865 866 864 863 862 861 858 853 848 844 842 839 835 830 826 823 820 817 813 810
780 785 793 798 802 807 812 821 825 829 835 838 842 847 849 854 857 857 859 861 864 866 867 869 868 867 866 865 862 857 853 849 846 843 839 836 832 830 827 824 821 818 814
793 797 804 807 812 817 822 827 832 835 837 844 849 850 853 855 856 858 863 867 867 868 869 870 871 870 867 864 860 858 854 850 847 844 840 837 835 832 830 827 825 822 819